Total_Precipitation_Accumulation
0.00 0.00 0.00 0.00 0.01 0.01 0.00 0.00 0.01 0.03 0.04 0.05 0.09 0.16 0.22 0.27 0.26 0.34 0.41 0.46 0.45 0.49 0.56 0.88 1.35 1.93 2.38 2.60 2.63 2.72 2.69 2.71 2.76 2.78 2.84 3.04 3.22 3.28 3.28 3.38 3.40 3.24 3.15 3.18
0.00 0.00 0.01 0.01 0.01 0.01 0.01 0.01 0.02 0.04 0.05 0.07 0.14 0.25 0.34 0.40 0.39 0.42 0.55 0.54 0.49 0.50 0.60 0.95 1.32 1.71 2.06 2.33 2.49 2.61 2.57 2.77 3.03 3.36 3.78 4.11 4.30 4.22 4.11 4.07 3.98 3.84 3.73 3.64
0.00 0.01 0.01 0.01 0.00 0.02 0.02 0.01 0.04 0.07 0.08 0.11 0.18 0.38 0.44 0.49 0.53 0.55 0.57 0.62 0.60 0.55 0.67 0.92 1.12 1.38 1.69 2.01 2.27 2.43 2.65 3.08 3.55 4.06 4.75 5.21 5.12 4.79 4.64 4.38 4.29 4.06 3.77 3.70
0.00 0.00 0.01 0.02 0.02 0.03 0.02 0.02 0.04 0.06 0.07 0.13 0.17 0.40 0.60 0.66 0.75 0.70 0.67 0.63 0.62 0.58 0.60 0.77 1.00 1.21 1.43 1.81 2.17 2.48 2.86 3.38 3.99 4.49 4.95 5.26 5.30 5.09 4.87 4.44 4.08 3.69 3.36 3.17
0.00 0.01 0.03 0.05 0.02 0.01 0.01 0.02 0.03 0.03 0.04 0.09 0.15 0.31 0.67 0.83 0.86 0.83 0.72 0.64 0.54 0.49 0.50 0.57 0.73 0.95 1.25 1.66 2.09 2.46 2.80 3.36 3.92 4.44 4.82 5.03 5.15 5.05 4.73 4.13 3.56 3.18 2.89 2.68
0.00 0.01 0.02 0.02 0.01 0.01 0.01 0.01 0.03 0.04 0.06 0.13 0.14 0.30 0.78 1.06 0.97 0.83 0.77 0.70 0.58 0.48 0.47 0.52 0.63 0.78 1.07 1.41 1.80 2.17 2.51 3.16 3.80 4.33 4.72 4.96 4.99 4.73 4.20 3.61 3.10 2.80 2.57 2.34
0.03 0.03 0.03 0.02 0.01 0.01 0.01 0.03 0.12 0.18 0.20 0.23 0.20 0.36 0.77 0.89 0.87 0.84 0.76 0.68 0.58 0.50 0.47 0.48 0.59 0.68 0.95 1.28 1.60 1.97 2.33 2.76 3.23 3.62 3.86 4.01 4.04 3.86 3.57 3.21 2.80 2.48 2.27 2.06
0.08 0.07 0.05 0.02 0.02 0.02 0.02 0.04 0.15 0.23 0.27 0.30 0.38 0.68 1.01 0.89 0.83 0.80 0.74 0.64 0.55 0.51 0.51 0.53 0.62 0.71 0.83 1.07 1.37 1.73 2.02 2.30 2.53 2.70 2.88 2.88 2.84 2.77 2.64 2.34 2.00 1.75 1.53 1.40
0.10 0.10 0.06 0.02 0.01 0.02 0.03 0.05 0.06 0.11 0.15 0.31 0.60 0.84 1.12 1.04 1.04 0.90 0.79 0.70 0.61 0.57 0.55 0.59 0.68 0.73 0.82 0.96 1.17 1.37 1.50 1.68 1.75 1.71 1.72 1.77 1.79 1.76 1.64 1.48 1.26 1.03 0.85 0.76
0.09 0.09 0.07 0.04 0.03 0.03 0.04 0.04 0.06 0.14 0.24 0.40 0.63 0.95 1.30 1.37 1.26 1.02 0.81 0.68 0.58 0.57 0.57 0.60 0.68 0.75 0.80 0.86 1.04 1.15 1.15 1.14 1.18 1.20 1.20 1.16 1.17 1.16 1.14 1.08 0.97 0.84 0.72 0.61
0.08 0.10 0.09 0.06 0.07 0.09 0.07 0.08 0.09 0.15 0.22 0.40 0.69 1.15 1.26 1.45 1.37 1.18 1.04 0.80 0.69 0.66 0.67 0.70 0.69 0.67 0.67 0.69 0.74 0.80 0.85 0.90 0.92 0.91 0.92 0.90 0.82 0.77 0.76 0.78 0.76 0.69 0.61 0.53
0.10 0.10 0.17 0.13 0.11 0.10 0.08 0.09 0.12 0.24 0.29 0.35 0.63 1.30 1.28 1.55 1.54 1.33 1.15 0.92 0.84 0.81 0.76 0.72 0.66 0.63 0.62 0.66 0.70 0.70 0.72 0.72 0.74 0.74 0.72 0.72 0.63 0.58 0.58 0.57 0.57 0.52 0.49 0.48
0.10 0.15 0.29 0.37 0.32 0.21 0.15 0.11 0.13 0.17 0.25 0.34 0.61 1.33 1.43 1.49 1.50 1.24 1.04 0.97 1.04 1.05 0.98 0.86 0.76 0.68 0.64 0.65 0.66 0.62 0.59 0.55 0.50 0.48 0.47 0.52 0.53 0.51 0.53 0.50 0.48 0.50 0.47 0.44
0.09 0.23 0.45 0.73 0.66 0.36 0.26 0.18 0.14 0.18 0.30 0.39 0.60 0.99 1.21 1.31 1.25 1.17 1.10 1.10 1.20 1.19 1.03 0.88 0.82 0.73 0.69 0.64 0.59 0.54 0.50 0.46 0.43 0.39 0.37 0.40 0.44 0.44 0.45 0.46 0.45 0.43 0.40 0.38
0.10 0.25 0.31 0.30 0.25 0.25 0.26 0.23 0.20 0.22 0.28 0.47 0.69 0.90 1.10 1.32 1.42 1.41 1.27 1.18 1.19 1.16 1.08 1.00 0.89 0.80 0.72 0.68 0.60 0.53 0.49 0.42 0.38 0.40 0.40 0.40 0.42 0.41 0.42 0.43 0.42 0.38 0.34 0.31
0.12 0.20 0.26 0.29 0.25 0.25 0.30 0.30 0.28 0.30 0.40 0.55 0.74 1.06 1.36 1.53 1.54 1.46 1.35 1.25 1.25 1.17 1.11 1.04 0.93 0.83 0.76 0.74 0.71 0.64 0.57 0.49 0.45 0.47 0.48 0.45 0.43 0.43 0.44 0.42 0.38 0.34 0.32 0.29
0.16 0.23 0.38 0.40 0.28 0.37 0.63 0.55 0.50 0.50 0.51 0.66 0.85 1.09 1.30 1.45 1.53 1.53 1.45 1.39 1.37 1.27 1.23 1.17 1.05 0.93 0.87 0.81 0.75 0.71 0.63 0.56 0.52 0.52 0.49 0.45 0.40 0.39 0.38 0.34 0.33 0.30 0.29 0.28
0.19 0.28 0.40 0.41 0.50 0.85 0.85 0.51 0.51 0.59 0.51 0.53 0.67 0.80 0.96 1.15 1.24 1.32 1.39 1.46 1.51 1.42 1.32 1.20 1.12 1.05 1.00 0.91 0.82 0.73 0.63 0.55 0.50 0.47 0.44 0.37 0.35 0.36 0.34 0.32 0.32 0.29 0.31 0.33
0.14 0.29 0.51 0.53 0.72 0.89 0.81 0.48 0.40 0.61 0.73 0.56 0.56 0.64 0.75 0.77 0.95 1.21 1.23 1.23 1.36 1.37 1.31 1.21 1.11 1.04 0.97 0.89 0.77 0.66 0.58 0.48 0.42 0.41 0.37 0.32 0.28 0.28 0.28 0.28 0.30 0.32 0.34 0.39
0.12 0.23 0.52 0.66 0.91 1.06 0.85 0.37 0.31 0.56 0.98 0.69 0.66 0.67 0.77 0.82 0.98 1.07 0.99 0.98 1.08 1.14 1.13 1.10 1.06 0.97 0.87 0.76 0.63 0.56 0.53 0.47 0.38 0.33 0.30 0.27 0.27 0.28 0.29 0.31 0.33 0.30 0.33 0.39
0.38 0.42 0.56 0.74 0.96 0.99 0.51 0.25 0.35 0.85 1.01 0.72 0.75 0.81 0.82 0.89 0.92 0.79 0.75 0.85 0.96 1.01 1.01 0.96 0.89 0.84 0.74 0.62 0.52 0.48 0.46 0.41 0.28 0.21 0.21 0.23 0.25 0.26 0.23 0.30 0.33 0.32 0.33 0.36
0.63 0.68 0.73 0.81 0.99 1.04 0.43 0.29 0.56 0.72 0.52 0.58 0.66 0.65 0.69 0.65 0.62 0.65 0.69 0.80 0.88 0.93 0.91 0.86 0.78 0.68 0.56 0.45 0.42 0.41 0.34 0.26 0.18 0.17 0.19 0.20 0.21 0.18 0.18 0.27 0.31 0.32 0.37 0.35
0.69 0.77 0.81 0.89 0.98 0.71 0.39 0.31 0.31 0.36 0.42 0.45 0.48 0.47 0.52 0.57 0.57 0.58 0.66 0.75 0.82 0.79 0.72 0.64 0.55 0.49 0.40 0.34 0.34 0.33 0.25 0.17 0.14 0.19 0.22 0.21 0.19 0.19 0.17 0.21 0.24 0.27 0.34 0.34
0.80 0.69 0.71 0.76 0.76 0.53 0.38 0.27 0.23 0.24 0.29 0.32 0.37 0.44 0.49 0.55 0.57 0.57 0.59 0.62 0.64 0.63 0.55 0.46 0.40 0.39 0.35 0.28 0.25 0.22 0.15 0.13 0.16 0.23 0.24 0.22 0.23 0.24 0.19 0.18 0.17 0.18 0.22 0.24
0.66 0.72 0.88 0.93 0.86 0.63 0.47 0.32 0.27 0.26 0.30 0.34 0.41 0.46 0.45 0.45 0.51 0.53 0.53 0.50 0.46 0.42 0.38 0.34 0.34 0.33 0.28 0.22 0.19 0.15 0.13 0.13 0.20 0.22 0.19 0.18 0.18 0.19 0.20 0.16 0.12 0.10 0.10 0.09
0.37 0.56 0.90 1.03 0.82 0.70 0.65 0.53 0.46 0.49 0.55 0.49 0.42 0.42 0.45 0.41 0.39 0.35 0.32 0.30 0.27 0.24 0.23 0.23 0.23 0.22 0.19 0.17 0.14 0.12 0.10 0.11 0.17 0.20 0.16 0.15 0.13 0.12 0.12 0.14 0.12 0.07 0.05 0.05